Weather History for La Paz, B. C. S., Mexico

Change the Weather History Date:

Wednesday, March 26, 2014

  Actual Average Record
Temperature  
Mean Temperature 78 °F -  
Max Temperature 92 °F 84 °F - ()
Min Temperature 64 °F 57 °F - ()
Cooling Degree Days 13    
Growing Degree Days 28 (Base 50)    
Moisture  
Dew Point 40 °F    
Average Humidity 29    
Maximum Humidity 77    
Minimum Humidity 8    
Precipitation  
Precipitation 0.00 in - - ()
Sea Level Pressure  
Sea Level Pressure 29.92 in    
Wind  
Wind Speed 7 mph ()    
Max Wind Speed 17 mph    
Max Gust Speed -    
Visibility 9.9 miles    
Events      
T = Trace of Precipitation, MM = Missing Value Source: Averaged Metar Reports

Daily Weather History Graph

Daily Weather History Graph

Search for Another Location

Airport:

Trip Planner

Search our weather history database for the weather conditions in past years. The results will help you decide how hot, cold, wet, or windy it might be!

Date:

Astronomy

Mar. 26, 2014 Rise Set
Actual Time 6:19 AM MST 6:34 PM MST
Civil Twilight 5:56 AM MST 6:57 PM MST
Nautical Twilight 5:29 AM MST 7:24 PM MST
Astronomical Twilight 5:03 AM MST 7:50 PM MST
Moon 3:03 AM MST (3/26) 2:42 PM MST (3/26)
Length of Visible Light 13h 01m
Length of Day
12h 15m
Waning Crescent, 21% of the Moon is Illuminated
Mar 26
Waning Crescent
Mar 30
New
Apr 7
First Quarter
Apr 15
Full
Apr 22
Last Quarter

Hourly Weather History & Observations

Time (MST) Temp. Dew Point Humidity Pressure Visibility Wind Dir Wind Speed Gust Speed Precip Events Conditions
1:45 AM 67 °F 60 °F 72% 29.87 in 2 mi South 8.9 mph - -   Mostly Cloudy
4:50 AM 65 °F 57 °F 69% 29.86 in 2 mi South 4.5 mph - -  
6:03 AM 60.8 °F 53.6 °F 77% 29.90 in 10.0 mi South 9.2 mph - N/A   Scattered Clouds
7:40 AM 64.4 °F 53.6 °F 68% 29.94 in 10.0 mi South 6.9 mph - N/A   Scattered Clouds
7:50 AM 69 °F 53 °F 47% 29.93 in 12 mi South 4.5 mph - -   Scattered Clouds
8:40 AM 73.4 °F 42.8 °F 33% 29.96 in 10.0 mi South 6.9 mph - N/A   Partly Cloudy
9:46 AM 82.4 °F 30.2 °F 15% 29.96 in 10.0 mi Calm Calm - N/A   Partly Cloudy
10:41 AM 84.2 °F 17.6 °F 8% 29.96 in 10.0 mi North 9.2 mph - N/A   Partly Cloudy
10:50 AM 87 °F 44 °F 13% 29.95 in 19 mi NNW 6.7 mph - -   Clear
11:41 AM 82.4 °F 26.6 °F 13% 29.95 in 10.0 mi NNW 9.2 mph - N/A   Partly Cloudy
12:43 PM 82.4 °F 30.2 °F 15% 29.92 in 10.0 mi NNW 13.8 mph - N/A   Scattered Clouds
1:41 PM 86.0 °F 30.2 °F 13% 29.91 in 10.0 mi North 17.3 mph - N/A   Scattered Clouds
1:50 PM 89 °F 47 °F 14% 29.90 in 19 mi NNW 8.9 mph - -   Clear
2:44 PM 87.8 °F 30.2 °F 13% 29.89 in 10.0 mi North 16.1 mph - N/A   Mostly Cloudy
3:45 PM 86.0 °F 30.2 °F 13% 29.88 in 10.0 mi NNE 11.5 mph - N/A   Mostly Cloudy
4:45 PM 86.0 °F 28.4 °F 12% 29.88 in 10.0 mi NNE 11.5 mph - N/A   Mostly Cloudy
4:50 PM 88 °F 42 °F 11% 29.87 in 19 mi NE 6.7 mph - -   Clear
5:44 PM 84.2 °F 28.4 °F 13% 29.88 in 10.0 mi North 9.2 mph - N/A   Scattered Clouds
6:43 PM 78.8 °F 33.8 °F 20% 29.89 in 10.0 mi Calm Calm - N/A   Scattered Clouds
7:47 PM 73.4 °F 48.2 °F 41% 29.91 in 10.0 mi SW 6.9 mph - N/A   Scattered Clouds
7:50 PM 80 °F 47 °F 22% 29.90 in 2 mi NW 2.2 mph - -  
8:43 PM 73.4 °F 33.8 °F 23% 29.93 in 10.0 mi South 9.2 mph - N/A   Partly Cloudy
9:40 PM 71.6 °F 39.2 °F 31% 29.95 in 10.0 mi South 11.5 mph - N/A   Clear
10:45 PM 73 °F 43 °F 23% 29.93 in 2 mi South 6.7 mph - -   Mostly Cloudy
10:47 PM 68.0 °F 48.2 °F 49% 29.97 in 10.0 mi South 11.5 mph - N/A   Clear